ECMWFFLT2_250_rhum_000.txt.gz
RH
44 42 40 38 37 37 37 36 35 34 35 36 38 37 35 33 31 30 29 28 27 26 25 24 24 24 24 23 23 22 22 21 21 21 20 19 19 18 18 17 17 17 16 16 15 15 15 14 14 13 12 12
45 43 41 40 40 40 39 38 37 37 38 38 38 37 35 33 32 31 30 29 28 27 26 25 25 25 24 24 24 23 23 22 22 21 20 20 19 19 18 17 17 16 16 15 15 15 14 14 13 13 12 12
47 45 44 43 42 42 40 39 39 39 39 38 38 37 36 34 33 31 30 29 28 27 26 26 25 25 25 25 25 24 24 23 22 21 21 20 19 19 18 17 17 16 16 15 15 14 14 13 13 13 12 12
48 46 46 45 44 42 41 40 40 40 39 39 38 37 36 34 33 32 31 29 28 28 27 26 26 26 25 25 25 24 23 22 22 21 20 19 19 18 17 17 16 16 15 14 14 14 13 13 13 12 12 11
49 48 48 47 46 44 42 41 40 41 41 40 39 37 36 35 33 32 31 30 29 28 27 27 26 25 25 24 24 23 22 22 21 20 19 19 18 17 16 16 15 15 14 14 14 13 13 12 12 12 12 11
51 51 50 50 49 47 45 43 42 42 41 40 39 38 36 35 34 32 31 30 29 28 27 27 26 25 25 24 23 22 22 21 20 19 19 18 17 17 16 15 15 14 14 13 13 12 12 12 11 11 11 11
52 52 52 52 51 49 47 46 44 43 42 41 40 38 37 35 34 32 31 30 29 28 28 27 26 26 25 24 23 22 22 21 20 19 18 17 17 16 15 15 14 14 13 13 13 12 12 11 11 11 10 10
54 53 53 52 51 50 48 47 46 45 43 41 40 39 38 36 35 33 32 31 30 29 28 27 26 26 25 24 23 22 21 20 20 19 18 17 16 16 15 14 14 13 13 13 12 12 12 11 11 11 10 9
55 54 54 53 51 50 49 48 47 46 45 43 42 40 39 38 36 35 33 32 30 29 28 27 26 25 24 24 23 22 21 20 19 18 17 16 15 15 14 14 13 13 12 12 12 12 11 11 11 11 10 10
55 56 55 54 53 52 52 50 49 47 46 45 43 42 40 38 37 35 34 32 30 29 28 27 26 25 24 23 22 21 20 19 18 17 16 16 15 14 14 13 13 12 12 11 11 11 11 11 10 10 10 10
58 58 58 57 56 54 53 51 50 49 48 47 44 42 40 39 37 36 34 33 31 30 28 27 26 25 24 22 21 20 19 19 18 17 16 15 15 14 14 13 12 12 11 11 11 10 10 10 10 10 9 10
59 59 60 58 56 54 52 51 49 48 47 46 44 42 41 39 37 36 34 33 31 30 28 27 25 24 23 22 22 21 20 19 19 18 17 16 16 15 14 13 13 12 11 11 10 10 10 9 9 9 9 9
59 60 59 57 55 53 51 49 47 46 45 45 44 43 41 40 38 36 34 32 31 29 28 27 26 25 24 23 22 22 21 21 20 20 19 18 17 16 15 15 13 13 12 11 10 10 9 9 9 8 8 8
59 58 56 53 51 50 48 46 45 44 44 43 43 42 41 40 38 36 34 32 31 30 29 27 27 26 25 24 23 23 23 22 22 21 20 19 18 17 16 15 14 13 12 11 11 10 9 9 9 8 8 7
58 55 54 52 50 49 47 46 45 44 44 43 43 42 40 39 37 35 33 32 31 29 29 28 27 26 26 25 24 23 23 22 22 21 20 20 18 18 16 15 14 13 12 11 10 10 9 9 8 8 7 7
56 55 53 52 51 50 48 47 46 45 44 42 40 39 37 36 34 33 32 31 30 29 28 28 27 27 26 24 23 23 22 22 21 20 19 18 18 16 15 14 13 12 11 10 10 9 8 8 7 7 7 6
53 52 51 50 49 48 46 44 43 41 40 38 36 35 34 33 32 31 31 30 29 28 27 27 26 25 24 22 22 21 21 20 19 18 17 16 16 15 14 13 12 11 10 9 9 8 7 7 7 6 6 6
48 47 45 45 43 42 41 39 38 37 36 35 34 33 32 31 30 29 28 27 26 25 24 23 22 21 20 19 19 18 18 17 16 15 15 14 13 12 12 11 10 9 9 8 7 7 7 6 6 6 6 5
43 42 41 39 38 37 36 36 36 35 34 33 33 32 30 29 27 26 25 23 22 21 20 19 18 17 17 16 15 15 14 14 13 13 12 11 11 10 9 9 8 8 7 7 6 6 6 5 5 5 5 5
41 40 39 37 36 35 34 34 33 33 32 31 31 30 28 26 24 23 21 20 19 17 17 16 15 14 13 13 12 12 11 11 10 10 10 9 8 8 8 7 7 7 6 6 6 5 5 5 5 4 4 4
40 39 38 36 35 34 33 32 31 30 29 28 28 26 25 23 21 19 18 17 15 14 13 12 12 12 11 10 10 10 10 10 9 9 8 8 8 7 7 7 7 6 6 6 5 5 5 5 4 4 4 4
37 36 35 33 33 31 30 30 28 27 26 24 23 21 20 18 16 15 14 13 12 11 11 11 10 10 10 10 10 10 10 10 9 9 8 8 8 8 7 7 6 6 6 5 5 5 5 4 4 4 4 4
31 30 29 28 27 26 25 24 22 21 20 18 17 16 15 14 13 13 12 12 11 11 11 11 11 10 10 10 10 10 10 10 9 8 8 8 7 7 7 6 6 5 5 5 4 4 4 4 4 4 4 3
25 23 22 21 20 19 18 17 16 16 15 15 15 15 14 14 14 13 13 13 12 12 12 11 11 10 10 9 9 9 8 8 7 7 6 6 6 5 5 5 4 4 4 4 3 3 3 3 3 3 2 3
17 17 16 15 15 15 15 15 15 16 16 16 16 16 16 15 15 14 13 12 11 11 10 9 9 8 7 7 7 6 6 5 5 5 4 4 4 3 3 3 3 3 3 3 3 2 2 2 2 2 2 2
16 16 16 16 17 17 17 17 17 18 18 17 16 15 15 14 12 11 10 9 9 8 7 7 6 5 5 4 4 4 4 3 3 3 3 3 3 2 3 2 2 2 2 2 2 2 2 2 2 2 2 2
20 19 18 18 18 17 17 16 16 15 14 13 12 11 10 9 8 7 7 6 5 5 5 4 4 4 3 3 3 3 3 3 3 3 2 2 2 2 2 2 2 2 2 2 2 2 2 2 2 2 2 2
15 14 13 13 12 12 11 10 10 9 9 8 7 7 6 6 5 5 4 4 4 4 4 3 3 3 3 3 3 3 3 3 3 3 3 3 2 3 3 3 3 2 3 3 2 3 2 2 2 2 2 2
8 8 7 7 7 7 7 7 6 6 6 5 5 5 5 5 5 5 4 4 4 4 4 4 4 4 3 4 3 3 3 3 4 3 3 3 3 3 3 3 3 3 3 3 3 3 3 3 3 2 3 2
7 6 7 7 7 7 7 7 7 6 6 6 6 6 6 6 5 5 5 5 5 5 6 6 5 5 5 5 4 4 4 4 4 4 4 4 4 4 4 4 4 3 3 3 3 3 3 3 3 3 3 2
8 8 8 8 8 8 8 8 8 8 8 7 8 8 7 8 7 7 7 6 7 6 6 7 7 6 6 6 6 5 5 5 5 5 5 5 5 5 5 5 5 4 4 4 4 3 3 3 3 3 3 3

ECMWFFLT2_250_rhum_003.txt.gz
RH
40 40 39 38 38 39 39 40 41 41 42 42 42 42 42 41 40 38 37 35 33 32 30 29 28 28 28 29 31 30 30 29 27 26 24 23 22 22 21 21 21 21 21 20 20 20 19 19 19 19 18 18
44 42 41 41 41 42 42 43 44 44 44 44 44 43 43 41 40 38 36 35 33 32 31 31 31 31 32 34 34 33 31 29 27 26 25 24 23 23 23 23 23 22 22 21 21 21 20 20 20 19 19 18
48 46 44 44 44 45 45 45 45 45 45 45 45 43 42 41 39 38 36 35 34 33 32 32 33 35 36 37 36 34 32 30 28 27 26 26 25 25 24 24 24 24 23 23 22 22 21 21 20 20 20 19
51 49 48 47 47 47 47 47 47 46 46 46 45 43 42 41 39 38 37 37 37 36 35 34 36 38 39 38 37 35 33 31 30 29 28 27 26 25 25 25 25 25 24 24 24 23 23 22 22 21 21 20
52 51 49 48 49 50 50 49 49 48 48 47 45 44 42 42 41 40 39 39 39 39 39 39 40 41 40 39 38 36 34 33 32 30 30 28 27 26 26 26 25 25 25 25 24 24 24 23 23 22 21 21
53 52 50 51 52 53 53 52 52 52 51 50 49 47 46 45 44 43 42 41 41 41 43 44 44 43 41 40 38 37 36 35 33 32 31 30 29 27 26 26 25 25 25 25 25 24 24 24 23 22 22 21
57 56 54 55 56 57 57 57 56 56 56 55 54 53 51 50 48 46 45 43 43 43 43 45 45 44 42 41 39 38 37 36 35 33 32 31 30 28 27 27 26 26 25 25 25 24 24 23 23 22 22 21
62 61 60 59 60 59 59 60 61 60 59 58 57 57 55 53 51 48 46 45 45 45 45 45 45 45 43 42 41 40 38 37 36 34 33 32 31 30 28 27 26 26 25 25 24 24 24 23 23 22 22 21
62 61 62 61 60 59 60 62 62 61 60 59 58 57 56 54 52 50 48 47 46 46 45 45 45 45 44 43 42 41 39 38 37 36 34 33 32 31 29 28 27 25 25 24 24 23 23 22 22 21 21 20
58 58 59 59 59 59 61 62 62 61 60 60 58 57 55 54 53 51 50 48 47 46 45 45 45 45 44 43 42 41 40 39 37 36 35 34 32 31 30 28 27 26 25 24 23 23 22 22 22 21 21 20
59 59 58 57 58 59 59 59 60 61 60 60 59 57 55 54 53 51 50 49 49 48 48 47 45 44 43 42 42 41 40 38 37 36 34 33 32 31 30 29 27 26 25 24 24 23 22 22 21 21 20 19
60 60 60 59 59 59 58 58 60 60 59 57 55 54 54 53 52 51 51 50 50 50 50 48 46 44 42 40 40 39 38 37 36 35 34 33 32 31 29 28 27 26 25 24 24 23 22 22 21 20 20 19
61 60 59 58 58 58 58 59 58 56 54 52 51 52 52 51 51 52 52 52 52 52 51 48 45 43 41 40 39 38 37 36 36 34 33 32 31 30 29 28 27 26 25 24 23 22 22 21 20 20 19 19
64 62 61 59 57 57 57 56 54 51 50 50 50 49 49 50 51 53 54 53 52 51 49 46 44 43 41 40 39 38 37 36 36 35 33 32 31 30 29 28 27 26 25 24 23 22 21 21 20 19 19 18
64 62 61 60 58 57 56 55 53 52 51 51 50 49 48 50 51 53 52 51 49 48 46 45 44 44 43 41 40 38 38 37 36 35 34 33 31 30 29 28 27 26 25 24 23 22 22 21 20 19 19 18
63 62 61 61 60 59 59 59 59 58 57 55 53 51 51 51 51 50 49 48 47 46 46 46 46 45 44 42 40 38 37 36 35 34 33 32 31 29 28 28 27 26 25 24 23 22 21 21 20 19 18 17
63 63 63 62 61 61 61 61 62 61 59 57 56 54 54 53 52 51 50 49 48 47 47 47 47 46 44 41 39 38 37 35 34 32 31 30 29 28 27 26 26 25 24 23 22 21 21 20 19 18 17 17
65 64 63 62 62 60 60 59 59 59 58 57 55 53 51 50 49 48 48 47 46 45 45 45 44 43 42 39 37 36 35 34 33 31 30 28 27 26 25 24 23 23 22 21 21 20 19 18 18 17 16 15
64 63 62 61 60 59 59 58 57 56 55 53 50 48 47 46 45 44 43 42 41 40 39 39 39 38 36 35 34 33 32 31 30 29 27 26 25 24 23 22 21 20 19 19 18 18 17 16 15 15 14 14
61 60 60 58 57 57 56 55 54 52 50 48 46 46 45 44 41 39 38 37 36 35 34 33 33 32 30 29 29 28 27 27 26 26 24 23 22 21 19 19 18 17 16 16 16 15 15 14 14 13 12 12
58 57 57 56 55 54 53 51 49 47 45 44 44 43 42 40 37 36 34 34 33 31 30 29 28 27 25 24 23 23 22 22 21 20 20 19 18 17 16 15 15 14 13 13 13 12 12 12 12 11 11 10
54 53 52 51 50 50 49 47 45 44 42 41 40 38 36 35 34 32 31 29 28 26 25 24 23 22 20 19 18 17 17 17 16 15 15 14 14 13 12 12 12 11 11 10 10 10 10 10 9 9 9 9
48 46 45 44 43 43 42 41 40 40 39 37 35 33 31 30 29 27 25 23 21 20 19 18 17 16 15 14 13 13 13 12 12 11 11 11 10 10 10 10 9 9 9 8 8 9 8 8 8 8 8 8
38 37 36 35 34 34 33 32 31 31 30 29 28 26 24 23 22 20 19 17 16 15 14 13 13 12 12 11 11 10 11 10 10 10 10 10 10 10 9 9 9 9 9 9 9 9 8 8 8 7 7 7
26 26 25 25 24 23 22 21 20 20 20 19 19 18 17 17 17 16 15 14 14 13 12 12 12 12 12 12 12 12 12 12 12 12 12 12 11 11 11 10 10 10 10 10 10 9 8 8 7 7 7 6
23 23 23 23 22 22 21 21 20 20 20 20 19 19 18 18 18 18 17 16 15 15 14 14 13 14 14 14 13 13 13 12 12 12 12 11 11 10 10 9 9 9 9 8 8 7 7 6 6 6 6 6
18 19 19 19 20 20 21 21 22 22 21 21 20 19 19 18 18 17 16 15 15 15 14 14 13 13 12 12 11 11 10 9 9 9 9 8 8 8 7 7 7 7 6 6 6 5 5 5 5 5 4 4
10 10 10 11 11 12 12 12 13 13 13 12 12 12 12 12 11 10 10 10 10 9 9 9 8 8 8 7 7 7 6 6 6 6 6 5 5 5 5 5 5 5 5 4 4 4 4 4 4 4 4 3
10 10 10 10 9 9 9 9 9 8 9 9 9 9 9 9 9 8 8 7 7 6 6 6 5 5 5 5 5 5 5 5 4 4 4 4 4 4 4 4 4 4 4 4 4 3 3 3 3 3 3 3
11 11 11 11 11 11 10 10 10 10 10 10 10 10 10 11 11 11 10 10 9 8 7 6 6 6 5 5 5 5 5 5 5 5 4 4 4 4 4 4 4 4 4 4 3 3 4 4 3 3 3 3
10 10 10 10 10 11 10 11 11 11 11 11 11 11 11 11 11 12 12 12 12 11 10 9 8 8 7 7 6 6 6 6 6 5 5 5 5 5 5 5 5 4 4 4 4 4 4 4 4 4 4 3

ECMWFFLT2_250_rhum_006.txt.gz
RH
36 37 37 38 39 40 40 40 41 41 41 41 40 40 39 39 38 37 36 36 35 34 33 32 32 32 31 31 31 30 29 29 29 29 28 28 28 28 28 28 27 27 26 25 24 23 22 23 23 24 23 22
41 42 42 43 44 44 44 44 44 44 44 43 43 42 41 40 40 39 37 37 36 35 34 33 33 33 33 33 32 32 32 32 32 32 32 31 31 30 29 28 28 28 27 26 26 26 25 25 25 25 24 24
48 49 49 49 49 49 48 48 48 47 47 46 46 45 44 44 42 41 40 39 38 37 37 36 36 36 36 36 36 36 36 37 37 36 35 34 33 32 31 30 29 29 29 29 28 28 27 27 27 26 26 24
53 53 53 53 53 53 52 51 51 51 51 51 51 51 50 49 48 47 45 44 43 42 41 41 41 42 42 42 42 42 41 41 40 39 38 36 35 33 32 31 31 31 31 31 30 29 28 28 28 27 26 24
57 57 58 58 58 57 57 56 57 58 59 60 60 59 58 57 55 53 51 49 47 46 46 47 47 47 47 47 46 46 44 43 41 40 39 37 36 35 34 34 33 34 34 33 31 30 29 29 28 27 26 24
67 66 66 66 65 64 64 64 66 67 68 69 68 67 65 63 60 57 54 51 49 48 48 48 49 49 48 48 47 47 45 44 43 41 40 38 37 36 36 37 37 37 37 36 34 32 31 30 29 27 26 24
84 82 80 78 77 76 75 75 75 76 76 76 75 72 70 67 62 59 56 52 49 49 48 48 48 48 48 48 47 46 45 44 43 42 42 41 40 39 39 39 39 39 39 38 36 34 32 30 29 27 26 25
99 97 94 91 89 87 86 84 83 84 85 85 83 79 74 69 65 62 58 53 50 49 49 48 48 48 47 47 47 46 45 44 44 44 44 43 43 42 41 41 40 41 41 39 38 36 34 31 30 28 27 26
103 102 100 99 97 96 94 93 92 92 93 91 87 82 76 71 67 64 60 56 53 51 50 49 48 48 48 48 48 47 47 46 46 46 46 45 44 44 43 43 43 42 42 40 39 37 35 33 31 30 29 28
102 102 101 101 101 100 99 99 100 99 96 92 86 82 77 72 69 66 63 59 56 53 51 49 49 48 49 49 49 49 50 49 49 48 47 47 46 45 45 44 44 44 43 41 40 38 36 35 33 32 30 30
102 103 102 100 100 100 100 101 101 98 93 88 84 81 77 74 71 69 66 63 59 56 53 51 51 50 51 51 51 51 52 51 51 50 48 47 46 45 45 45 44 44 43 42 40 39 38 36 35 34 32 31
99 100 99 96 92 92 91 91 92 90 87 84 80 78 75 73 72 70 68 66 62 59 56 54 53 53 53 53 54 54 53 52 51 50 48 46 45 45 44 44 44 44 44 42 41 40 39 38 37 35 34 32
93 92 92 91 86 82 79 77 80 80 78 77 75 71 69 68 67 66 65 63 61 59 57 55 54 54 54 55 55 55 54 51 49 47 46 45 43 43 43 43 43 44 44 43 42 41 40 39 38 37 35 33
83 81 82 82 79 76 73 71 71 70 69 69 69 68 66 63 61 59 58 57 57 56 55 53 52 52 53 54 54 53 51 48 46 45 44 44 43 42 41 41 41 41 42 42 42 42 41 40 39 38 36 34
68 69 69 69 69 68 67 65 65 64 63 62 62 62 62 60 57 54 53 52 51 50 49 48 48 48 49 50 49 47 46 45 44 43 44 43 43 42 41 40 39 39 40 40 41 41 41 40 40 38 37 35
57 58 59 59 59 59 60 59 59 59 58 57 56 56 55 55 53 52 50 48 46 44 43 43 44 44 45 45 44 42 42 42 43 43 43 42 42 41 40 40 40 40 40 39 39 39 39 39 39 38 37 36
51 51 51 52 52 52 52 52 52 52 52 52 52 51 51 51 50 49 48 46 45 43 41 42 43 44 44 44 42 42 41 42 42 42 42 41 40 40 40 40 40 40 39 39 39 38 38 38 37 37 37 36
48 47 47 47 47 47 47 47 47 47 48 48 48 48 47 48 48 47 45 44 43 41 41 41 43 44 44 44 43 42 42 43 43 43 43 42 41 40 40 40 40 39 39 38 38 38 38 37 37 36 36 35
53 51 49 48 47 47 46 46 46 46 46 47 47 47 47 47 47 47 46 45 44 42 41 41 43 44 45 45 45 45 45 45 45 45 45 44 43 42 41 41 40 39 38 37 37 36 36 35 35 35 34 34
59 58 56 54 52 51 49 47 46 45 45 45 45 46 46 47 47 47 46 45 45 43 43 43 44 45 46 46 46 45 46 46 46 45 44 44 43 42 40 39 37 36 35 34 33 33 32 32 32 31 31 31
57 57 57 57 56 55 53 51 49 48 46 45 45 45 45 45 44 43 42 42 42 41 41 42 42 42 43 43 42 42 43 43 42 41 41 40 39 37 36 34 32 31 30 29 29 28 28 28 27 27 27 27
51 51 51 51 52 52 51 50 49 47 47 46 46 46 46 45 44 43 42 41 39 39 39 39 39 39 39 39 38 37 38 37 37 36 35 34 32 30 29 28 28 27 26 25 24 24 24 23 23 23 23 23
42 42 42 43 43 43 43 43 42 42 42 42 42 43 44 43 42 41 40 39 37 36 36 36 36 36 36 35 34 33 33 33 32 31 29 27 26 25 24 24 24 23 22 21 20 21 20 20 20 19 19 18
34 34 35 36 36 36 35 35 35 35 35 35 36 37 38 39 39 38 37 36 34 33 33 34 33 33 33 33 32 31 30 29 28 26 24 23 23 23 22 22 22 20 19 18 18 19 18 18 17 16 16 16
21 23 25 27 29 30 30 31 31 31 31 31 31 31 32 33 33 33 33 31 30 30 31 31 30 30 30 31 30 28 27 25 24 23 22 22 22 22 21 20 19 18 17 16 16 16 16 15 14 14 13 13
13 13 14 16 17 19 20 22 24 25 26 27 28 29 29 29 29 29 28 28 27 26 26 26 26 26 26 26 26 25 24 22 21 22 22 22 22 20 19 18 17 16 15 14 14 13 13 12 12 12 11 11
14 13 13 13 13 13 13 13 14 15 16 18 19 20 22 23 24 25 26 26 26 25 25 25 25 25 25 25 24 24 22 21 21 21 21 21 20 19 17 16 16 16 15 13 13 13 13 12 12 12 12 12
15 15 15 14 14 14 15 14 14 13 12 12 12 13 13 13 14 15 17 18 18 19 20 21 22 23 24 24 25 25 24 24 24 24 24 23 22 21 20 19 19 18 17 15 16 16 15 14 14 15 14 14
13 14 13 13 14 14 14 14 14 14 14 13 13 12 12 11 11 11 11 11 11 11 11 12 14 15 16 16 17 17 18 18 19 19 20 20 20 19 18 17 17 16 16 15 15 15 13 13 13 14 13 12
9 10 11 11 11 11 12 12 13 13 13 13 12 12 12 12 12 11 11 11 10 9 8 8 9 10 10 11 10 10 10 10 10 10 10 10 11 10 10 10 9 9 10 10 10 9 9 9 9 9 9 8
7 7 8 8 9 9 9 10 10 10 11 11 11 11 11 11 11 12 11 12 11 10 9 8 8 9 9 10 10 9 9 9 8 8 8 7 7 7 6 6 6 6 6 6 6 6 6 6 6 6 6 6

ECMWFFLT2_250_rhum_009.txt.gz
RH
36 37 39 40 40 41 40 39 38 36 34 33 32 31 30 30 30 30 30 31 31 31 32 32 33 33 34 34 34 34 34 34 35 35 35 34 34 34 33 33 32 30 29 28 27 26 24 23 21 21 20 20
35 35 37 38 40 41 42 42 41 41 39 38 37 36 35 34 34 33 33 33 34 34 35 35 35 36 36 36 37 37 37 37 37 37 37 37 36 36 35 34 33 32 31 30 29 28 26 25 23 22 22 21
35 35 37 38 40 41 42 43 43 43 42 42 41 41 40 40 39 38 38 38 38 38 38 39 39 39 39 39 39 39 40 39 40 39 39 38 38 37 36 36 35 34 33 32 31 29 28 27 26 25 24 23
36 36 37 38 40 41 42 43 44 45 45 45 45 45 45 45 45 45 45 44 44 43 43 43 43 43 43 43 43 42 42 42 41 41 40 39 39 38 37 37 36 35 34 34 33 31 31 30 29 27 27 26
38 38 38 38 39 40 42 44 45 47 49 50 50 50 50 49 50 50 50 50 49 49 48 48 47 47 47 46 46 45 44 43 42 41 41 40 39 38 38 37 37 37 37 36 35 34 33 32 31 30 29 28
41 41 41 41 41 42 43 44 45 47 49 51 52 53 53 53 53 53 54 53 53 53 52 52 51 51 50 49 47 46 45 44 43 42 41 40 40 38 38 37 38 39 39 39 38 37 36 35 34 32 31 30
31 34 37 39 40 42 42 43 44 45 47 49 52 54 56 57 57 57 58 58 58 57 57 56 55 54 53 52 50 49 48 47 46 45 43 42 41 40 39 40 41 42 42 42 41 40 39 37 36 35 34 33
20 23 27 32 36 40 42 44 45 46 46 47 48 51 54 56 58 59 60 62 62 61 62 61 60 59 58 57 56 56 55 54 52 50 49 47 46 44 43 44 45 45 45 45 44 43 42 40 39 38 37 35
25 27 32 39 44 48 52 55 57 58 56 55 53 52 52 53 54 56 58 61 63 63 64 64 63 62 63 63 63 63 62 61 60 58 56 54 52 50 48 48 48 48 48 48 47 46 45 44 42 41 39 38
39 41 46 52 57 64 71 77 80 81 79 77 74 70 66 63 62 61 61 63 65 64 64 64 63 63 64 65 66 67 68 67 66 64 63 60 58 55 52 52 52 52 51 51 50 49 48 46 45 43 41 40
53 55 56 57 60 68 78 87 93 97 99 100 98 93 88 84 80 76 74 74 74 71 69 68 66 65 64 65 66 67 67 68 67 66 65 63 61 58 55 54 55 54 54 53 52 51 49 48 46 44 43 42
62 64 63 61 62 67 75 81 91 101 104 106 106 104 101 98 94 89 86 88 87 82 79 76 75 73 71 71 71 70 69 67 66 64 64 63 61 59 56 55 56 56 55 55 54 52 50 48 47 45 44 43
61 65 67 66 66 68 72 75 84 95 99 98 97 99 99 97 96 93 91 94 95 90 87 84 83 82 80 80 80 78 76 73 68 64 63 62 61 59 56 55 55 56 56 56 54 53 51 49 48 46 45 44
59 60 61 62 63 64 67 68 71 80 87 85 84 88 91 90 90 90 88 89 91 90 89 88 87 86 85 85 86 84 81 78 73 67 63 62 61 59 56 56 55 56 56 55 54 53 51 49 48 47 46 45
61 60 58 56 57 58 57 57 58 61 67 69 70 74 79 80 80 83 85 84 84 84 84 84 83 83 81 80 80 79 77 75 71 65 63 61 61 60 57 55 55 56 55 53 52 51 50 49 47 47 46 46
62 62 60 57 55 55 54 53 52 52 53 54 56 58 63 67 69 72 74 76 77 77 78 77 75 75 74 72 70 67 64 63 61 58 58 59 59 59 57 54 54 54 53 52 51 49 49 47 46 46 45 45
60 61 60 59 57 55 54 53 53 52 51 50 48 48 50 54 56 57 58 59 60 62 64 63 61 62 63 63 61 57 52 50 52 52 52 54 54 54 53 51 50 50 48 48 48 46 46 45 44 43 42 42
60 59 58 58 57 55 54 52 51 51 51 51 49 47 46 47 48 46 45 45 45 46 48 48 47 49 50 50 50 49 46 43 44 46 46 48 49 48 47 46 45 45 43 41 42 41 41 40 40 39 39 39
68 64 61 59 58 57 55 54 52 50 50 49 48 48 47 47 47 46 43 41 41 41 41 41 41 42 42 42 42 42 41 39 39 40 41 43 44 44 43 42 41 40 39 36 36 36 35 34 34 35 35 35
73 71 69 66 63 61 59 57 55 53 51 50 48 47 47 48 48 47 46 44 43 42 42 42 40 41 40 39 39 39 38 35 35 36 37 39 40 40 39 38 37 36 35 32 32 31 31 30 30 32 32 32
64 66 67 66 66 64 63 61 59 57 55 53 51 49 48 48 48 48 47 47 46 44 44 44 43 43 42 42 41 40 39 37 36 36 37 38 39 38 36 35 34 32 31 29 29 29 29 29 29 30 30 31
46 49 53 55 57 58 59 59 59 59 58 56 54 52 50 49 48 48 49 48 47 46 46 46 45 44 44 44 44 43 42 42 41 41 41 42 43 42 39 37 34 33 32 30 30 30 31 31 30 30 30 30
24 29 33 37 41 44 47 49 50 52 54 55 55 54 52 50 49 48 48 48 47 46 46 47 48 47 46 46 46 46 44 44 44 44 46 46 46 45 43 41 39 37 35 34 33 34 34 33 32 32 32 31
15 16 18 20 23 27 30 33 36 39 42 45 48 50 51 50 50 48 47 46 46 45 44 45 46 47 47 47 49 49 47 47 47 47 49 49 48 47 47 46 44 42 40 39 38 37 37 37 37 36 36 36
16 16 15 15 16 16 18 19 21 23 26 29 33 37 42 45 46 47 47 46 45 44 43 43 44 45 45 44 46 47 47 46 47 48 49 51 51 51 51 49 47 45 43 41 40 40 40 39 39 39 38 38
16 17 17 17 17 16 15 15 15 16 17 17 19 22 26 30 34 37 40 42 43 43 42 42 42 44 45 45 46 47 45 43 43 44 46 49 52 54 54 51 49 47 44 43 42 41 39 38 38 37 37 36
12 13 14 16 17 17 16 15 15 15 15 15 15 15 16 18 20 23 27 30 33 35 36 37 37 39 42 45 47 49 48 44 42 41 42 45 49 52 52 50 48 47 46 45 42 41 39 38 37 36 36 36
9 9 10 11 12 14 15 15 15 15 15 15 15 15 15 14 14 15 17 19 21 22 24 25 27 29 32 36 39 42 44 44 42 41 41 42 44 46 47 45 43 43 44 44 42 40 39 36 35 36 37 37
7 7 7 7 8 9 11 12 13 13 13 13 14 15 15 14 14 14 14 14 15 16 16 17 17 18 20 23 26 29 32 35 36 36 37 38 39 40 40 39 36 35 37 38 38 37 36 34 33 34 34 33
5 5 5 5 6 6 7 8 9 10 11 11 12 13 14 14 14 14 14 14 13 14 14 14 14 14 14 15 16 18 20 22 23 25 27 29 32 33 33 32 30 29 30 31 31 30 31 31 29 28 26 26
3 4 4 4 4 4 5 5 6 7 8 9 10 11 12 12 13 14 14 14 14 13 13 13 13 13 13 13 13 14 14 14 15 15 16 18 20 23 24 24 25 25 26 28 29 28 28 28 26 24 22 22

ECMWFFLT2_250_rhum_015.txt.gz
RH
31 30 28 26 25 23 22 21 21 21 20 20 19 18 18 17 18 19 22 27 31 33 33 34 36 36 37 37 37 40 42 45 48 48 49 49 52 55 58 62 67 70 69 62 58 58 55 52 51 50 49 47
34 34 33 32 31 29 28 27 25 24 23 21 21 20 20 19 19 19 19 20 22 25 27 27 27 27 27 26 27 28 30 34 37 39 40 41 40 41 45 49 54 59 58 52 56 62 59 54 52 50 48 47
38 37 36 35 34 33 33 32 31 30 29 27 25 23 22 21 20 21 21 20 20 21 22 23 23 24 25 24 24 24 24 26 28 30 31 34 34 34 36 39 43 45 43 38 42 52 54 52 51 50 48 47
39 39 39 38 37 36 35 34 34 33 33 32 31 30 27 25 24 23 22 22 22 22 21 22 22 22 23 23 24 24 25 24 25 25 25 26 27 28 30 34 38 37 36 32 32 39 42 42 43 45 46 47
38 39 39 39 39 38 38 37 36 35 35 35 35 34 34 32 30 28 26 25 24 24 23 23 23 22 22 22 22 23 23 24 25 25 24 23 23 22 23 27 30 31 31 30 29 32 33 34 34 36 37 38
32 34 36 37 37 37 38 38 38 37 37 36 36 36 36 36 35 34 33 31 29 28 27 26 25 25 25 24 24 23 23 24 24 24 24 23 22 21 21 23 24 23 24 23 24 25 27 29 29 28 28 29
17 19 22 25 28 30 32 34 35 36 37 37 37 37 38 38 37 38 37 36 35 33 31 31 30 29 28 27 27 26 26 25 24 24 24 23 23 22 22 24 23 21 21 21 20 20 21 24 24 23 23 24
12 10 10 11 12 14 17 20 24 27 30 33 35 36 37 39 39 39 39 39 38 38 37 36 35 33 32 31 30 29 28 27 27 27 27 26 25 24 24 24 24 22 22 22 21 20 20 22 22 21 21 22
25 22 19 16 14 12 10 9 10 12 14 17 21 25 29 32 36 38 39 40 40 40 40 39 39 38 37 36 35 34 33 31 30 29 29 29 29 29 28 26 26 24 24 24 22 22 21 22 22 22 22 22
41 39 36 32 29 26 22 18 14 12 10 9 9 10 13 17 21 26 30 34 38 40 41 41 41 40 40 39 39 38 37 36 34 33 32 31 31 32 33 32 31 29 28 27 25 24 23 23 22 22 23 22
49 48 46 44 42 40 38 35 31 27 23 19 16 12 9 8 8 10 13 17 22 27 32 36 39 41 41 41 40 40 40 40 38 37 36 35 34 33 34 35 34 34 33 32 30 28 26 26 25 24 24 24
47 48 49 48 48 47 46 45 44 42 39 35 32 28 22 17 13 10 8 8 8 11 15 19 25 30 34 38 40 41 42 42 42 41 40 39 38 37 36 35 35 36 37 37 36 34 32 30 29 28 27 27
36 39 41 43 45 45 46 47 47 48 47 46 44 42 38 33 29 25 20 14 10 8 7 8 10 13 17 23 28 32 37 41 43 43 43 43 42 42 41 39 37 36 37 39 39 38 37 35 33 32 31 30
32 32 33 34 36 38 40 42 43 45 47 49 50 50 48 44 40 38 35 31 26 20 14 10 7 7 7 9 12 16 21 29 35 39 42 44 45 45 45 44 42 40 40 40 41 41 41 40 39 37 36 34
32 32 32 32 32 33 34 36 37 39 41 43 46 49 51 51 49 46 43 41 40 37 31 25 19 13 9 7 6 7 8 12 17 23 29 35 40 44 46 46 46 45 44 44 45 45 45 45 43 42 42 41
28 29 30 30 31 31 32 33 34 36 38 39 41 43 46 49 52 52 50 47 45 44 43 41 37 30 24 16 11 8 7 7 8 10 13 18 25 33 39 43 46 47 48 48 48 48 49 49 48 47 46 46
21 22 24 25 26 28 29 30 32 34 36 38 40 41 43 44 47 50 51 52 51 48 47 47 47 45 41 35 28 20 13 10 8 8 9 10 13 20 28 35 41 45 49 50 51 52 52 52 52 51 49 49
15 16 17 18 19 20 22 24 26 29 31 35 38 41 42 43 44 46 48 51 54 54 51 49 50 50 50 49 45 39 30 23 17 13 12 12 12 15 22 30 36 41 49 53 55 58 60 60 59 57 56 55
16 15 15 14 15 15 16 17 18 20 23 26 30 35 39 41 43 45 46 48 51 55 55 53 52 51 53 55 54 51 46 39 32 26 21 18 17 17 20 28 34 40 48 54 58 64 68 69 68 68 69 68
18 17 16 15 15 14 13 14 14 15 16 18 20 24 28 34 38 43 46 47 48 51 54 56 56 55 54 55 55 56 55 50 43 39 37 32 28 26 26 29 34 40 47 52 59 66 71 74 75 77 79 81
20 18 17 17 15 15 14 13 13 13 13 13 14 16 18 21 26 33 39 43 46 47 49 52 56 60 59 57 54 55 58 59 53 47 44 43 41 38 36 35 37 41 47 52 56 63 71 76 78 81 84 84
20 19 17 16 15 15 14 14 13 13 13 12 12 13 13 14 16 20 25 31 36 42 47 50 53 58 61 61 58 55 55 60 63 57 49 46 47 48 47 46 46 47 50 53 53 56 64 71 74 78 82 84
16 15 15 15 15 14 14 13 13 12 13 12 12 12 12 12 13 14 15 18 22 28 36 44 51 56 59 60 60 58 55 55 61 63 59 53 50 50 52 54 57 57 55 53 52 53 57 62 68 72 78 84
12 12 13 13 13 13 13 13 13 13 12 12 12 12 12 13 13 13 13 13 14 16 21 28 38 49 57 59 58 59 59 57 58 62 66 65 60 55 52 54 57 61 62 59 55 53 52 53 59 66 72 80
9 10 10 10 10 11 11 12 12 12 12 11 11 10 10 11 12 13 13 13 12 13 14 16 21 31 43 53 57 59 60 60 60 61 66 69 68 62 56 54 56 60 63 62 57 55 57 58 59 62 65 72
7 7 7 8 8 8 9 10 10 11 11 11 11 10 10 9 10 11 12 13 13 12 13 13 14 17 24 33 42 50 57 61 62 62 64 69 71 69 63 61 62 62 61 59 58 60 63 63 61 60 60 65
5 5 5 6 6 7 7 8 8 9 9 10 10 11 10 10 9 9 10 11 12 12 12 13 14 15 16 19 24 31 41 51 58 62 64 67 72 75 73 70 68 66 64 62 61 61 59 57 57 59 60 64
4 4 4 4 5 5 6 6 7 7 7 8 9 10 10 10 10 9 9 10 11 12 12 12 13 15 16 16 17 19 23 30 39 49 58 65 72 78 82 79 75 75 75 72 67 63 59 55 56 56 59 67
4 4 4 4 4 4 5 5 6 6 6 7 7 8 8 9 9 9 9 9 9 10 11 12 11 13 15 16 16 17 17 19 22 28 38 49 61 73 83 88 86 84 85 83 78 72 66 61 58 57 61 70
4 3 3 3 3 3 4 4 5 5 5 5 6 6 7 8 8 9 9 9 9 9 10 11 11 11 12 13 15 16 17 17 18 19 21 27 37 49 66 81 90 91 89 88 87 82 76 70 67 65 65 65
3 3 3 3 3 3 3 4 4 5 5 5 5 5 6 6 7 8 8 8 8 9 9 10 11 11 11 11 13 14 15 16 17 18 17 18 20 25 35 50 69 81 85 89 92 90 88 84 78 74 71 68

ECMWFFLT2_250_rhum_018.txt.gz
RH
30 28 26 25 24 22 21 21 21 20 20 19 19 19 20 21 23 26 26 26 26 27 29 33 43 57 70 79 89 96 99 102 101 101 103 101 100 98 98 102 105 105 105 103 98 98 99 99 97 92 91 85
39 37 35 34 32 29 27 25 24 23 22 21 20 19 19 19 20 22 24 24 24 23 24 24 24 29 37 44 54 67 79 91 97 100 103 102 100 98 98 103 107 107 106 102 99 97 96 96 91 85 86 89
45 45 43 42 39 37 35 33 30 28 27 25 24 23 21 21 20 20 21 22 22 22 23 23 22 21 22 24 26 33 42 56 70 84 96 101 102 100 97 102 105 105 106 101 99 98 96 95 91 85 84 85
48 48 47 46 45 44 42 40 38 35 33 31 29 28 26 25 23 22 22 22 21 20 21 22 22 21 20 19 18 19 20 25 35 47 64 80 90 94 94 100 104 106 108 95 91 100 99 97 96 92 88 83
49 48 47 47 47 46 46 45 44 42 40 38 35 33 31 29 28 27 25 24 23 21 21 21 21 21 21 20 18 17 16 16 18 23 31 43 56 66 74 84 96 106 106 83 71 85 92 90 89 86 83 78
48 47 47 46 46 45 45 45 45 45 44 43 41 39 37 35 33 31 30 28 27 25 23 23 22 21 21 21 21 19 18 17 16 16 17 21 27 35 44 55 71 84 88 73 56 60 69 69 67 67 68 69
42 43 44 44 44 44 44 44 43 43 43 43 43 42 42 40 39 37 35 33 31 30 27 26 25 24 22 21 22 21 20 20 19 18 16 16 17 19 23 31 41 48 56 58 46 42 47 49 46 47 51 57
24 26 28 31 33 35 37 39 40 40 41 41 41 41 42 41 41 41 40 39 37 35 33 30 29 28 26 24 23 23 22 22 21 20 19 18 17 16 17 20 23 24 31 38 36 30 31 35 37 38 41 46
15 14 14 14 15 17 20 22 26 28 31 33 35 37 38 39 40 40 40 40 40 39 38 36 35 33 31 29 27 26 25 24 23 22 21 20 20 19 19 19 18 18 21 25 28 25 24 27 31 34 34 36
28 26 23 19 16 14 12 12 12 13 15 17 20 23 26 29 32 35 37 38 39 39 40 39 39 38 37 34 32 31 30 29 27 25 24 22 21 21 21 21 20 18 19 20 22 23 22 22 27 31 32 31
41 41 40 37 34 30 26 22 18 16 14 12 11 11 12 14 17 20 24 28 32 35 37 38 38 39 39 38 37 35 34 33 32 30 29 27 25 24 23 23 22 21 21 20 20 21 21 20 23 28 30 31
45 47 48 49 48 47 44 40 36 31 28 25 22 18 15 13 12 11 12 14 17 21 25 29 33 35 37 38 38 38 37 37 36 35 33 32 30 29 28 26 25 23 22 22 22 21 21 20 20 22 24 26
35 38 42 45 48 50 52 52 50 46 42 40 37 34 30 25 22 19 15 13 11 11 12 15 18 22 26 31 33 35 36 38 38 38 37 36 35 34 34 32 30 28 26 24 23 23 22 22 22 22 21 22
27 28 29 32 35 38 42 47 50 51 50 48 46 44 41 38 36 33 30 26 21 17 15 12 11 11 13 16 20 24 28 32 35 38 39 38 38 38 38 37 36 34 32 30 28 26 25 24 24 24 23 23
24 24 25 25 26 27 28 31 34 39 42 44 46 45 45 44 42 41 40 39 36 32 28 24 19 16 14 11 10 11 14 18 22 28 33 36 37 38 40 39 39 38 38 37 35 33 31 29 27 27 26 25
16 17 19 20 22 23 23 24 25 26 28 31 34 36 39 40 41 41 41 42 42 41 39 38 35 31 28 24 19 15 11 10 10 13 17 23 28 32 36 39 40 40 40 40 40 39 38 36 34 32 30 29
13 12 13 13 14 16 17 19 20 22 23 24 25 26 28 30 32 34 36 38 40 42 42 42 43 42 40 38 36 32 24 17 13 10 9 10 14 19 24 30 34 38 40 41 41 42 41 40 39 38 36 34
15 13 13 12 12 12 12 12 13 15 17 19 21 22 23 24 24 25 27 29 32 36 38 40 42 44 46 45 45 44 39 34 28 22 17 13 10 9 11 15 21 26 32 37 39 41 42 42 42 41 40 39
17 15 14 13 12 12 11 12 11 11 11 11 13 15 17 20 21 22 23 23 24 26 29 33 36 39 44 46 47 47 45 44 41 36 32 28 23 17 12 9 9 12 17 22 28 33 38 41 42 42 42 41
18 18 17 15 14 13 11 11 11 11 11 10 10 9 10 11 14 16 19 21 22 22 22 24 26 29 34 40 44 47 48 46 44 42 40 39 37 33 28 21 15 11 9 10 14 18 24 30 35 39 41 42
19 18 18 17 15 13 12 11 10 10 10 10 10 10 9 9 9 9 11 14 16 20 21 21 22 23 24 28 33 38 45 47 46 44 42 41 41 41 41 38 32 25 18 13 9 9 11 15 20 26 32 37
18 18 17 16 15 14 13 12 11 10 10 9 9 9 9 9 9 9 9 9 9 12 15 18 20 21 22 23 24 26 32 38 44 47 45 42 41 41 43 45 45 42 38 30 21 14 10 8 9 12 17 21
16 16 15 15 15 14 14 13 12 11 10 10 10 10 10 10 9 9 9 9 8 8 9 11 14 17 19 21 23 24 24 27 33 39 45 46 44 41 40 42 47 49 49 46 40 31 22 15 11 8 8 10
13 13 13 13 13 13 13 13 13 13 12 11 10 10 10 10 10 9 9 8 8 8 8 9 9 11 13 16 19 22 24 26 27 30 36 43 48 46 40 37 42 49 52 51 49 46 40 32 24 18 12 8
10 10 9 9 10 10 11 11 12 12 12 12 11 11 10 10 10 9 9 9 8 8 8 8 9 9 10 11 13 16 20 23 27 29 30 36 44 49 47 40 36 42 51 55 52 48 47 45 41 36 29 20
8 8 7 7 7 7 8 8 9 10 10 11 12 12 12 11 11 10 10 9 9 9 8 8 8 8 9 10 10 12 14 17 21 25 29 33 38 45 50 50 43 40 44 51 53 51 50 50 49 46 42 36
6 6 6 6 6 6 6 6 7 7 8 9 10 11 11 12 12 11 11 11 10 10 10 10 9 8 8 9 9 10 11 13 15 17 22 27 33 38 44 50 51 47 44 46 50 54 55 51 49 47 45 45
5 5 6 6 5 5 5 5 5 5 6 6 7 8 9 10 11 11 11 11 11 11 11 11 11 10 9 8 9 9 10 11 13 14 15 18 23 29 35 42 48 51 53 54 53 55 57 53 49 47 47 52
6 6 6 5 5 5 5 5 4 4 4 5 5 6 7 8 8 9 10 11 11 10 11 12 12 12 11 9 9 9 10 10 11 13 13 14 16 19 25 31 39 47 55 61 62 59 59 58 55 52 55 61
5 5 5 5 4 4 4 4 4 4 4 4 4 5 5 6 6 7 8 9 10 10 10 11 12 13 13 12 11 10 10 10 11 11 12 14 14 15 17 20 27 36 45 55 62 63 62 62 60 60 62 62
4 4 3 3 3 3 3 3 3 3 3 4 4 4 4 4 5 5 6 7 8 9 9 9 10 12 13 13 12 11 11 11 11 11 11 12 13 14 15 15 18 23 31 43 54 57 61 65 66 65 66 67

ECMWFFLT2_250_rhum_024.txt.gz
RH
51 49 47 45 42 38 33 31 30 27 24 19 16 14 14 16 18 19 19 19 19 20 22 24 26 30 33 37 47 58 66 68 64 58 58 58 58 60 65 70 73 82 90 92 94 93 97 103 99 93 83 73
52 52 51 50 48 45 42 39 38 37 34 30 25 21 17 15 15 17 16 16 15 15 16 17 18 19 21 24 29 38 47 55 58 56 57 58 58 58 62 64 65 73 84 87 88 84 87 98 102 104 98 85
53 53 52 52 51 50 48 46 45 44 42 40 36 31 26 22 19 18 18 17 15 15 15 14 14 15 15 17 17 21 27 33 40 44 50 56 57 56 59 62 60 65 78 85 86 81 78 87 96 102 105 98
55 55 54 54 53 52 51 51 50 49 49 48 46 42 38 32 27 23 22 20 19 17 16 15 14 14 14 15 15 14 16 18 21 25 32 41 47 48 51 57 57 58 71 83 85 81 76 79 87 90 96 100
54 55 55 55 55 55 54 54 54 54 54 54 53 52 49 44 38 32 28 26 25 23 20 17 15 15 14 14 14 14 13 14 14 14 16 21 27 31 36 43 49 50 61 82 89 84 77 73 80 83 85 91
47 51 53 53 54 55 56 55 56 57 57 57 57 57 56 54 51 45 40 34 30 28 26 23 20 18 16 14 14 14 14 13 13 13 11 12 13 16 19 24 32 37 46 72 88 87 82 73 73 79 81 85
28 35 42 47 50 52 54 55 56 57 59 60 60 60 59 58 58 56 51 45 39 34 31 28 26 23 21 19 16 14 14 14 14 14 13 11 11 11 12 12 15 21 27 48 72 79 78 73 70 75 77 80
20 20 22 28 35 42 47 50 53 54 56 58 60 62 62 62 61 60 57 53 48 43 39 35 32 30 28 25 22 19 16 16 15 15 15 13 12 12 11 11 10 12 13 24 46 56 57 57 60 68 74 77
28 25 22 19 19 23 29 36 43 48 51 53 55 58 61 64 65 64 63 59 56 52 48 44 40 37 34 32 29 26 22 20 19 17 16 14 14 14 13 13 12 12 11 14 27 34 32 32 37 47 60 69
28 29 30 28 25 20 17 18 23 30 38 44 48 51 53 58 63 67 68 66 63 59 56 53 49 45 41 38 35 33 30 25 23 22 20 17 15 15 14 14 13 14 13 14 23 26 19 17 18 24 35 47
24 25 27 28 30 29 26 22 17 16 19 25 33 40 45 48 53 58 64 69 69 67 64 61 57 53 49 45 42 39 37 33 29 26 25 23 19 18 17 17 16 16 16 16 22 23 17 14 13 13 19 26
19 21 23 24 25 26 28 28 27 23 18 15 16 21 28 35 42 47 53 59 64 68 68 67 64 60 56 53 50 45 42 40 37 33 30 29 26 23 21 20 20 19 20 20 22 23 18 14 14 13 14 16
14 15 16 18 21 22 23 24 25 27 26 24 19 15 14 17 24 32 40 46 51 57 61 65 67 66 63 59 56 53 50 46 43 40 36 34 33 30 27 25 24 23 24 24 25 25 22 17 15 15 14 15
15 14 14 13 14 16 18 20 21 22 23 25 25 24 21 16 14 15 20 28 35 42 49 54 59 64 66 64 63 60 57 53 51 48 43 40 38 36 34 31 29 28 28 29 30 29 27 23 20 18 17 17
14 14 15 14 13 13 13 14 16 18 20 21 22 23 25 25 23 18 15 14 16 23 31 40 47 53 58 62 64 64 62 58 56 54 51 48 44 41 40 38 35 33 33 34 35 34 32 29 26 24 22 21
14 13 13 13 13 14 14 13 13 13 15 17 19 20 21 23 25 26 25 21 17 14 14 20 29 39 47 52 57 60 61 60 58 57 56 54 50 47 45 44 42 39 38 38 39 40 38 35 32 30 28 27
16 15 14 13 13 12 13 13 14 14 13 13 14 15 18 19 21 23 26 27 27 24 20 16 15 19 27 35 43 50 54 57 58 57 56 55 54 52 49 48 48 45 43 43 43 42 42 41 39 36 34 32
15 15 15 14 14 13 13 12 12 13 13 14 13 13 14 15 17 19 21 23 26 29 30 28 24 19 16 17 22 29 37 44 51 54 55 54 53 53 51 49 49 49 48 47 48 46 46 45 43 42 39 37
16 15 15 15 15 15 14 14 13 12 12 12 13 13 14 13 13 14 15 17 20 23 26 29 31 29 26 21 17 16 17 21 29 38 45 49 51 50 50 50 49 49 49 49 49 49 50 49 46 44 43 42
17 17 16 16 17 16 16 15 15 14 13 13 12 12 12 13 13 13 13 13 13 15 18 21 24 26 28 28 27 24 20 17 15 17 22 29 36 40 43 44 45 46 48 49 50 50 50 50 48 46 46 45
17 17 17 17 17 17 17 17 16 16 16 16 15 14 13 12 12 12 13 13 13 12 13 14 16 18 21 24 27 28 28 27 24 20 17 16 17 20 24 28 32 36 39 44 47 49 50 50 49 48 47 47
17 17 17 17 17 17 16 16 17 17 18 18 17 16 15 14 13 12 12 12 12 13 13 13 13 13 15 17 20 23 26 28 29 29 27 24 21 17 16 15 16 19 22 27 32 38 42 45 47 49 48 48
16 16 15 15 15 15 15 14 14 15 15 16 16 15 15 14 14 14 14 13 12 12 12 13 13 13 13 13 14 16 18 21 24 26 27 28 28 27 26 22 18 15 14 14 16 19 23 28 33 38 42 44
13 13 13 12 12 12 12 12 12 12 12 12 12 13 13 14 15 15 15 15 14 13 12 12 12 13 14 14 14 14 14 15 16 19 22 24 26 27 29 30 30 28 24 20 16 14 13 14 16 19 23 27
11 11 11 10 10 10 10 10 10 11 11 11 11 11 11 11 12 14 14 15 15 15 14 14 13 13 13 13 14 14 15 15 14 14 15 17 20 22 24 26 29 32 32 31 28 26 23 19 17 15 13 13
9 9 9 9 9 9 9 9 9 10 10 11 11 11 11 10 11 11 12 13 13 15 15 15 15 15 15 14 13 14 14 15 15 16 15 14 15 16 19 20 22 25 29 31 32 34 36 34 30 25 21 17
8 8 8 8 8 8 9 9 9 9 10 10 11 11 11 11 11 10 11 11 11 12 13 14 16 16 16 16 15 15 14 15 15 16 16 16 16 15 15 16 17 19 21 25 27 30 35 38 38 37 34 30
7 7 8 8 8 8 8 8 8 9 9 10 10 11 12 11 10 10 10 11 11 12 12 13 14 15 16 16 16 16 16 16 15 16 16 16 17 16 16 16 16 16 15 18 20 23 27 30 35 40 40 40
7 7 7 7 7 7 7 7 7 8 8 9 10 11 11 11 10 9 9 10 10 10 11 12 13 13 14 14 15 17 17 17 16 16 17 17 17 17 17 17 17 17 16 15 15 17 20 22 27 33 36 40
5 5 6 5 5 5 5 5 6 6 6 7 8 9 10 9 9 9 9 9 9 10 10 10 11 12 12 13 13 14 15 16 16 16 17 17 18 18 18 17 17 18 18 18 16 15 15 17 19 23 28 33
4 4 4 4 5 4 4 4 4 5 5 5 6 7 7 7 7 7 7 8 9 9 9 9 10 10 11 11 12 13 13 14 14 15 16 16 17 18 18 19 18 18 17 18 18 17 16 15 15 17 19 23

ECMWFFLT2_250_rhum_027.txt.gz
RH
57 58 58 57 55 52 52 52 52 52 48 42 38 34 32 33 34 32 29 25 22 19 19 24 31 38 44 47 47 46 49 53 51 48 50 53 53 53 51 54 56 61 75 82 73 63 58 57 58 61 67 70
48 50 52 53 53 51 49 47 47 49 49 49 48 44 42 42 41 38 37 34 30 26 22 19 20 25 30 36 40 42 44 48 50 49 49 51 54 55 54 54 55 59 71 84 82 68 58 54 53 53 58 63
46 46 46 47 47 47 46 45 44 43 44 46 47 48 48 49 47 44 43 40 37 34 32 28 23 21 21 25 28 33 37 40 44 47 47 49 53 55 56 57 58 60 69 87 92 80 67 59 54 52 52 55
47 47 46 46 45 45 44 44 44 43 43 43 44 45 46 48 50 49 46 44 42 39 38 37 34 29 24 22 22 25 27 31 35 39 43 45 48 51 53 56 59 62 67 87 103 95 80 70 61 57 53 51
34 36 37 39 39 39 39 39 40 41 42 43 44 44 43 44 46 48 48 46 45 43 41 40 39 38 34 29 25 24 23 25 26 28 33 37 42 45 47 50 55 61 64 81 106 107 94 83 70 62 58 54
23 24 25 25 26 26 27 28 29 30 33 36 40 42 43 43 44 45 46 46 45 44 44 43 41 40 39 38 34 30 27 25 23 22 23 27 32 36 40 42 46 53 56 68 96 113 107 96 84 70 63 59
23 24 24 24 23 22 21 20 19 19 21 24 28 34 38 41 43 44 45 45 44 43 44 44 43 42 40 39 39 38 36 32 27 23 21 21 22 26 29 32 37 42 46 52 75 108 115 105 97 83 70 65
23 24 25 26 27 27 27 25 23 20 18 17 18 21 26 32 37 41 43 45 45 44 43 44 44 44 42 40 39 38 39 39 36 32 27 23 19 19 21 23 26 28 34 39 54 91 114 110 105 97 85 76
19 21 22 23 25 26 28 29 30 29 26 23 19 17 17 20 25 32 39 43 45 45 44 44 44 43 43 42 40 38 38 38 39 38 36 32 26 20 18 18 19 19 22 27 36 67 105 113 103 97 94 89
15 16 18 19 21 22 23 24 27 29 30 30 28 24 20 16 16 19 27 35 42 46 46 45 44 44 43 42 41 40 39 38 37 38 38 37 34 29 24 20 18 17 16 18 21 38 78 106 100 89 86 88
13 13 14 15 16 17 19 20 21 23 25 27 29 30 29 25 20 16 16 21 29 38 45 48 48 46 45 44 43 41 41 40 38 37 37 37 36 35 32 28 23 20 16 15 16 19 39 71 86 82 73 73
15 14 13 13 13 14 14 16 17 19 20 21 23 25 28 30 28 25 20 16 17 21 30 41 48 51 49 48 46 44 43 42 41 40 39 37 36 36 36 35 31 27 22 18 16 17 21 34 50 57 56 54
18 16 15 14 14 13 13 13 13 14 16 17 19 20 21 24 27 28 28 25 20 16 17 22 33 44 50 51 50 49 47 45 44 43 42 40 38 37 37 38 37 34 31 26 21 19 19 22 27 30 33 34
19 18 18 17 15 14 14 13 13 12 12 13 14 17 18 19 21 23 26 28 28 25 21 17 18 26 36 44 49 51 52 50 48 46 45 45 43 40 40 41 41 41 39 37 32 27 23 22 23 23 21 20
17 18 18 18 17 16 15 14 13 13 12 12 11 12 14 16 18 19 21 23 26 28 28 26 22 19 20 26 33 41 47 52 53 51 49 49 48 44 43 44 45 47 46 45 44 40 35 29 26 23 21 18
16 16 16 17 17 18 17 16 15 14 13 12 12 11 11 12 13 15 18 19 21 23 26 28 29 28 24 20 19 22 29 39 47 52 54 54 52 48 45 46 48 50 52 52 52 52 49 43 37 30 26 22
15 15 16 16 17 17 17 18 17 16 15 14 13 12 12 12 11 12 13 15 17 19 21 23 26 29 30 29 26 21 18 20 27 37 47 52 55 54 51 48 49 51 55 57 58 59 59 56 50 43 36 30
16 15 15 15 15 16 16 17 17 17 17 17 16 14 13 12 12 12 12 12 13 15 17 19 22 24 27 30 31 31 27 21 18 19 26 34 43 50 52 52 51 52 55 59 62 64 65 64 61 55 49 42
18 17 16 15 15 15 15 16 17 17 17 18 18 17 17 15 14 13 13 13 14 14 14 15 17 20 22 25 27 31 33 32 28 23 18 18 23 31 39 45 50 53 55 58 62 65 68 70 69 64 59 53
18 18 17 17 16 15 15 15 15 16 17 17 18 18 18 18 17 16 14 14 14 14 15 15 15 15 17 20 23 25 28 31 33 33 30 24 19 18 21 27 35 44 52 57 60 63 66 70 71 70 66 62
15 16 16 16 16 16 15 15 15 15 15 16 17 17 17 17 18 18 17 16 15 14 14 15 16 16 15 15 17 19 22 25 27 30 32 33 30 25 20 17 19 25 35 47 55 61 65 67 69 70 69 68
11 12 13 14 15 15 15 15 15 14 14 15 15 15 16 16 16 17 17 17 17 16 15 14 15 15 16 16 15 15 16 19 22 24 26 28 31 32 30 25 20 17 18 25 37 48 58 64 67 67 68 68
8 9 10 11 12 12 13 13 14 14 14 14 14 13 13 14 15 15 16 16 17 17 17 16 15 14 14 15 16 15 15 15 16 18 21 24 25 27 30 31 30 25 20 16 18 26 37 49 58 64 66 66
6 7 7 8 8 9 10 10 11 12 12 13 13 12 12 12 13 13 14 15 15 15 16 17 17 16 15 14 14 14 15 15 15 15 15 18 21 23 25 27 30 31 30 26 20 17 19 26 37 48 56 61
6 6 6 6 6 7 7 8 8 8 9 10 10 11 11 11 11 12 13 13 14 14 15 15 16 16 16 16 15 15 15 15 15 16 15 15 15 18 20 23 26 28 30 32 32 28 22 18 19 24 34 44
6 5 5 5 5 5 5 6 6 6 7 7 8 8 8 9 9 10 11 12 12 12 13 13 14 15 16 16 17 17 16 16 15 15 16 16 15 15 16 17 20 23 26 29 33 35 35 30 23 18 18 23
6 5 5 5 5 5 5 5 5 5 6 6 6 6 7 7 8 9 10 10 10 10 11 12 12 13 15 15 16 17 17 17 17 17 16 16 16 16 16 16 16 17 19 23 26 30 35 38 36 31 24 19
6 6 5 5 5 5 5 5 5 5 5 6 6 6 6 6 7 8 9 9 9 9 9 10 10 11 13 14 15 16 16 17 17 18 19 18 17 16 16 17 16 16 15 17 19 22 27 31 36 39 37 33
6 6 5 5 5 5 5 5 5 5 5 5 5 5 6 6 6 6 7 8 8 8 8 8 8 9 10 11 13 14 15 16 17 17 18 18 19 18 18 17 17 17 16 16 16 17 19 21 26 32 35 38
5 5 5 5 5 4 4 4 4 5 5 5 5 5 5 5 6 6 6 7 6 6 7 7 7 7 8 9 10 11 12 13 15 16 16 17 17 18 19 19 18 18 17 17 17 16 16 16 18 21 25 31
4 4 4 4 4 4 4 4 5 5 5 5 5 5 5 5 5 5 5 6 6 6 6 6 6 6 7 7 8 9 10 11 12 13 14 15 15 16 16 17 18 19 19 18 17 16 17 17 17 16 17 21

ECMWFFLT2_250_rhum_033.txt.gz
RH
28 30 32 33 32 30 27 24 22 20 19 19 18 19 21 26 30 35 41 48 54 56 54 52 48 45 45 46 46 45 43 42 42 44 48 50 48 47 50 54 59 64 70 80 84 73 56 52 52 49 50 53
26 27 28 32 35 35 34 31 28 26 24 22 20 18 17 17 19 23 27 32 40 47 48 47 47 44 42 41 41 42 40 39 39 39 42 47 51 49 47 49 53 58 65 73 83 85 70 55 53 52 49 50
31 29 28 28 31 34 36 36 34 32 30 28 26 23 20 18 16 16 18 22 26 33 38 39 40 41 41 39 37 36 37 36 35 36 37 40 46 50 50 48 48 50 57 66 76 84 83 68 56 53 51 48
37 36 34 32 31 32 34 36 37 37 36 34 32 29 26 24 21 18 16 18 20 22 26 29 31 34 37 36 34 32 31 32 32 33 34 35 38 44 50 51 49 48 50 58 70 78 84 82 69 59 55 50
36 38 38 38 37 36 35 35 37 39 41 40 38 35 33 30 28 26 22 19 20 20 20 23 25 29 33 33 31 29 27 27 29 31 31 32 32 35 42 49 51 50 48 50 61 72 79 85 83 72 64 59
24 29 34 37 39 40 39 39 38 39 41 43 44 43 40 37 34 32 30 27 25 24 22 20 22 25 29 30 27 24 24 24 25 27 28 28 28 29 32 39 46 51 52 49 52 60 67 76 82 79 71 68
12 15 20 25 30 35 39 41 41 41 42 43 45 47 47 45 42 39 37 35 32 31 29 25 22 22 25 27 24 21 20 22 23 23 23 25 24 24 24 28 35 43 49 52 52 53 56 61 68 74 73 70
9 9 10 12 15 20 26 31 36 40 42 43 44 46 48 49 48 47 44 42 39 38 37 34 29 26 25 24 22 19 20 22 22 20 19 20 21 21 20 21 24 31 39 46 51 52 53 55 57 62 66 67
10 10 9 9 10 10 12 16 20 26 32 37 41 44 46 47 49 49 48 47 46 44 43 41 38 34 31 27 23 19 20 23 23 21 18 17 18 18 18 17 17 20 27 34 42 47 50 52 54 56 58 60
11 11 11 10 10 10 9 10 10 13 16 21 27 33 38 42 45 47 48 49 48 49 48 47 45 42 38 33 29 24 23 25 25 23 20 18 17 17 16 16 15 14 16 22 28 35 42 46 49 52 54 55
12 12 12 12 11 11 11 10 10 9 9 11 13 17 22 28 34 39 43 45 47 48 49 50 49 48 45 40 35 32 30 30 30 27 23 20 19 19 17 16 16 14 13 14 17 22 28 36 41 45 48 51
11 11 12 12 12 12 12 12 12 11 10 10 10 10 11 13 17 23 28 34 38 43 46 48 50 50 49 46 41 39 37 36 35 33 30 24 21 21 21 20 18 18 16 14 14 15 18 23 29 35 40 44
11 11 11 12 12 13 13 13 13 13 12 11 11 10 10 9 10 11 14 18 23 29 35 41 44 47 49 48 46 45 45 43 40 39 37 32 27 24 24 24 22 22 21 19 17 16 17 19 21 24 28 33
11 11 11 11 12 12 13 13 13 13 13 13 13 12 11 11 10 9 9 10 12 15 20 26 32 37 42 45 46 46 49 49 47 44 43 41 36 31 29 27 26 25 25 24 22 21 21 22 22 23 24 26
12 12 12 12 12 12 12 13 13 13 13 14 13 13 13 13 12 11 10 10 10 10 12 14 18 23 28 33 38 41 46 49 50 49 48 48 45 40 37 34 31 29 28 27 26 26 27 28 28 28 29 29
13 13 13 12 12 12 12 12 13 13 13 14 13 14 14 14 14 13 13 12 11 10 10 10 11 13 16 20 25 30 35 41 45 47 49 51 51 48 45 42 38 35 33 32 30 29 31 34 35 35 35 36
13 13 13 13 13 13 13 12 12 13 13 13 13 14 14 13 13 13 13 13 13 13 12 11 10 10 11 12 14 18 22 28 33 38 42 47 51 52 50 48 46 43 40 38 36 34 34 36 39 41 41 42
11 12 13 13 14 13 13 13 13 13 12 13 13 13 13 13 13 13 13 13 13 14 14 13 12 11 11 10 11 12 14 17 21 25 30 35 41 46 49 50 50 50 47 44 42 40 39 39 40 43 44 45
9 10 11 12 13 13 14 14 14 13 13 12 12 12 13 13 13 13 12 13 13 13 14 14 14 14 13 12 11 10 11 12 14 16 19 23 27 32 37 42 46 49 50 48 47 45 44 43 43 44 45 46
7 8 9 10 11 12 13 14 14 13 13 13 12 12 12 12 12 13 12 12 12 12 13 13 14 14 14 14 13 13 12 11 11 12 13 16 19 22 25 29 33 39 44 46 48 48 47 46 46 45 46 47
5 6 7 8 9 10 11 12 13 13 13 13 13 13 13 13 13 13 13 12 12 12 12 12 12 13 13 14 14 14 14 13 13 11 11 12 13 16 19 21 23 27 31 35 40 43 45 46 46 47 47 48
4 5 5 6 7 8 9 10 10 11 12 12 13 13 13 13 13 13 13 13 13 12 12 12 12 12 12 12 13 14 14 14 14 14 13 12 11 12 14 17 19 21 23 25 28 32 36 38 40 42 44 46
4 4 4 5 5 6 6 7 8 9 10 12 12 13 13 13 13 14 14 14 14 13 13 13 12 12 11 11 12 13 13 14 14 14 14 14 13 12 12 13 14 16 19 21 23 26 28 29 30 32 35 39
4 4 4 4 4 5 5 5 6 7 8 9 10 11 12 13 13 13 13 13 13 13 13 13 13 12 12 12 11 12 12 13 13 14 14 15 15 14 13 12 12 12 14 16 19 22 25 26 26 25 26 29
3 4 4 4 4 4 4 4 5 5 6 7 8 9 10 11 12 13 13 13 13 12 12 12 12 12 12 12 12 12 12 12 12 13 13 14 15 15 15 14 13 12 12 12 14 16 20 23 25 24 23 24
3 3 3 3 4 4 4 4 4 4 5 5 6 6 7 9 10 11 12 13 13 13 12 12 12 12 12 12 12 12 12 12 12 13 13 14 14 15 15 15 15 14 13 12 12 12 14 17 21 23 24 24
3 3 3 3 3 4 4 3 3 3 4 4 4 5 5 6 7 8 10 11 12 13 13 14 13 13 13 13 13 12 12 12 12 13 13 13 14 14 15 15 16 16 15 15 13 12 12 13 15 18 20 22
3 3 3 3 3 3 3 3 4 4 4 4 3 4 4 4 5 6 7 8 9 11 12 13 14 14 14 15 14 14 13 13 13 13 13 14 14 14 15 15 16 16 16 16 16 15 14 13 13 14 16 17
3 4 4 4 3 3 3 3 3 3 4 4 4 4 3 3 4 4 4 5 6 7 9 10 12 13 14 15 15 15 14 14 14 14 14 15 15 15 15 16 16 16 16 17 17 17 17 16 15 13 13 14
4 4 4 4 3 3 4 3 3 3 3 3 3 3 4 3 3 3 3 3 4 5 5 7 8 9 10 11 13 14 14 14 14 14 14 15 15 16 16 16 17 17 17 17 17 17 18 18 18 17 15 13
3 4 4 4 4 4 4 3 4 4 3 3 3 3 3 3 3 3 3 3 3 3 4 4 5 6 6 7 9 10 11 12 13 14 14 14 15 15 16 16 17 18 18 18 17 17 18 18 19 19 18 17

ECMWFFLT2_250_rhum_036.txt.gz
RH
19 20 22 25 27 28 29 30 30 30 30 31 33 35 36 36 37 40 43 41 38 37 39 41 42 42 41 40 39 39 40 41 40 41 44 50 54 57 59 60 60 58 57 58 56 50 48 49 47 44 45 47
17 17 18 20 22 25 26 28 28 28 28 27 28 29 30 31 31 33 36 36 33 34 36 39 42 42 42 40 38 38 39 39 39 39 40 43 48 52 54 55 56 56 54 55 57 54 48 48 49 47 44 45
19 18 18 18 20 22 23 25 26 27 28 27 27 27 27 26 26 27 29 29 28 29 32 35 38 39 39 39 38 36 37 38 38 39 39 39 41 44 48 50 52 53 53 52 53 54 52 47 46 48 46 43
16 18 19 20 21 21 23 24 25 26 27 28 28 28 27 26 24 24 24 24 23 24 26 30 34 34 33 35 35 32 31 31 34 37 38 38 37 38 41 45 47 49 50 51 51 51 52 50 45 44 46 45
9 11 13 16 18 20 23 24 25 26 26 27 27 28 29 29 27 25 23 21 20 20 22 24 27 28 29 32 33 31 28 25 26 30 34 36 36 35 36 39 42 44 46 48 50 51 52 52 48 44 44 45
7 7 8 9 11 14 17 21 24 26 27 27 27 27 28 29 30 29 27 24 21 19 20 21 23 24 25 27 30 30 26 22 21 24 28 30 32 32 33 35 37 40 42 44 46 48 52 54 53 48 43 43
8 7 6 6 7 8 10 13 17 21 24 27 28 28 28 28 29 30 30 29 26 22 21 21 21 21 22 24 26 28 25 21 19 22 26 27 28 28 28 30 32 35 38 42 44 45 48 53 55 52 47 43
9 9 8 7 7 6 7 7 9 12 16 20 25 28 30 30 29 29 30 31 31 28 25 24 23 22 22 22 23 25 25 23 20 21 24 26 25 23 22 23 26 29 32 36 41 43 45 48 52 54 52 47
8 9 9 9 8 7 7 6 6 7 9 11 15 20 26 29 31 31 31 32 33 33 31 29 28 27 25 24 24 23 25 25 22 21 23 26 26 23 20 19 20 22 25 29 34 38 42 45 47 51 54 53
8 8 8 9 9 9 8 8 7 7 7 7 8 11 15 21 26 30 33 34 35 35 36 35 34 33 32 30 28 26 26 26 25 23 23 26 27 25 22 19 18 17 20 22 27 32 35 39 42 46 50 54
8 8 8 8 9 9 9 9 8 8 8 7 7 7 9 11 15 21 27 31 35 37 38 39 39 38 38 37 35 32 30 29 28 27 25 26 27 26 25 24 22 19 18 18 20 24 28 32 36 39 43 48
8 8 8 8 8 9 9 9 9 9 9 8 8 7 7 8 8 11 15 21 27 33 37 41 42 41 42 42 42 39 37 36 34 33 31 29 28 27 26 26 27 24 21 18 17 19 21 25 31 34 37 41
8 8 8 9 9 9 9 9 9 9 9 9 9 8 8 8 8 8 8 11 15 21 28 35 40 42 44 44 45 45 44 43 41 40 39 37 35 31 28 26 28 29 27 23 19 19 18 20 26 31 33 36
8 8 9 9 9 9 9 9 10 10 10 10 9 9 9 9 9 8 8 8 9 11 15 21 29 36 41 44 46 47 48 48 47 46 46 45 43 40 35 31 29 31 33 29 23 21 21 20 22 27 30 32
8 9 9 9 9 9 9 10 10 10 10 10 10 10 9 10 9 9 9 9 9 9 9 11 15 21 29 37 41 45 48 50 50 50 51 51 50 48 44 39 35 35 36 35 30 25 24 24 23 24 28 30
8 8 8 9 9 9 9 10 10 10 10 10 10 10 10 10 10 10 9 9 9 9 9 9 9 11 15 22 29 36 42 48 51 52 53 54 54 53 50 46 42 41 40 39 37 32 29 29 28 26 27 29
6 6 7 7 8 8 8 9 10 9 10 10 10 10 11 10 10 10 10 10 10 10 10 10 10 10 9 11 15 20 28 37 45 49 52 54 56 55 53 50 47 45 47 47 44 40 36 34 33 31 29 30
4 5 5 6 6 7 7 8 9 9 9 10 10 10 11 11 11 11 10 10 10 10 11 10 10 10 10 10 10 11 15 21 29 37 45 50 54 55 54 52 49 47 50 53 52 49 45 41 39 36 35 34
4 4 4 5 5 5 6 7 7 8 9 9 10 10 11 11 11 11 11 11 11 11 11 11 11 11 11 10 10 10 10 11 15 20 28 37 44 49 52 53 51 48 50 54 56 55 52 49 46 43 41 39
3 4 4 4 4 5 5 6 6 7 7 8 9 10 11 11 12 12 12 12 11 11 11 11 11 11 11 11 11 11 10 10 10 11 14 19 26 34 40 46 49 49 49 52 55 56 56 54 51 49 47 45
3 3 3 3 3 4 4 4 5 6 6 7 7 9 10 10 11 12 13 13 12 12 12 12 12 12 11 11 11 11 12 11 11 11 10 11 13 17 23 29 37 43 45 48 52 55 56 57 55 52 51 50
3 3 3 3 3 3 3 4 4 4 5 6 6 7 8 9 10 11 12 13 13 13 13 12 12 12 12 12 12 11 12 12 12 12 11 11 10 10 12 15 20 27 32 38 44 50 54 56 57 56 53 51
3 3 3 3 3 3 3 3 3 4 4 4 5 5 6 7 8 10 11 12 13 14 14 14 13 13 13 12 12 12 12 12 12 12 12 12 11 10 10 10 11 13 17 22 29 38 46 52 55 56 55 53
3 3 3 3 3 3 3 3 3 3 3 4 4 4 4 5 6 7 9 10 11 13 14 14 14 14 14 13 13 13 13 12 12 12 12 12 12 12 11 11 10 10 10 12 15 20 28 37 46 51 54 54
3 3 3 3 3 3 3 3 3 3 3 3 3 4 4 4 4 5 6 7 9 10 12 13 14 15 15 15 15 14 14 13 13 13 13 12 12 12 12 12 12 11 11 10 10 11 14 20 28 36 43 48
3 3 3 3 3 3 3 3 3 3 3 3 3 3 3 4 4 4 4 5 6 7 9 10 12 14 15 15 15 16 16 15 14 14 13 13 13 12 12 12 12 12 12 11 11 11 11 12 14 20 26 34
3 3 3 3 3 3 3 3 3 3 3 3 3 3 3 3 4 4 4 4 5 5 6 7 9 11 12 14 14 15 16 16 16 16 15 14 13 13 13 13 13 12 12 12 12 12 12 11 11 12 15 19
3 3 3 3 3 3 3 3 3 3 3 3 3 3 3 4 4 3 3 4 4 4 5 5 6 8 9 10 12 13 15 16 17 17 17 16 15 14 14 13 13 13 13 12 12 13 13 13 13 12 12 13
3 3 3 3 3 3 3 3 3 3 3 3 3 3 3 3 3 4 3 3 3 4 4 4 5 6 7 8 9 10 12 14 15 16 17 17 17 16 15 15 14 14 14 13 13 13 13 13 13 13 13 13
3 3 3 3 3 3 3 3 3 3 3 3 3 3 3 3 3 3 3 3 4 3 3 4 4 4 5 6 7 8 9 11 13 14 15 17 17 17 16 16 16 15 15 14 14 13 13 13 13 14 14 14
2 2 3 3 3 3 3 3 3 3 3 3 3 3 3 3 3 2 3 3 3 3 3 4 4 4 4 5 5 6 7 8 10 11 13 14 15 16 17 17 17 17 16 16 15 14 14 14 13 14 14 15

ECMWFFLT2_250_rhum_039.txt.gz
RH
14 15 17 19 20 22 23 24 24 23 24 28 35 40 45 47 48 48 48 47 46 46 46 46 48 49 48 45 45 44 43 43 45 45 44 44 44 43 44 45 46 46 46 47 50 48 41 42 50 52 50 48
11 12 13 14 15 15 16 16 15 14 13 15 19 25 30 35 39 42 43 43 43 44 43 44 45 46 47 46 45 45 43 42 42 43 44 44 45 44 42 42 43 46 46 45 46 47 44 40 44 52 54 52
8 9 10 11 13 14 14 15 15 14 12 12 13 16 20 23 27 31 34 35 37 39 40 40 41 42 43 43 42 43 43 42 42 41 42 43 42 42 43 42 40 42 45 47 47 46 45 42 41 45 51 53
6 6 7 8 9 10 11 13 14 14 14 13 13 14 16 18 20 23 26 28 29 31 34 35 37 38 39 40 40 40 40 40 42 42 43 44 41 39 40 42 41 40 40 44 48 48 47 45 43 42 45 50
7 7 6 6 6 6 7 8 10 11 12 13 13 14 15 16 18 19 21 23 24 24 27 29 32 33 34 37 37 38 38 37 38 39 42 44 43 40 38 37 40 41 39 39 42 47 49 49 46 44 43 45
6 7 7 7 6 6 6 6 6 7 8 9 10 12 13 15 17 18 19 20 21 21 22 24 27 29 30 32 33 35 37 37 35 34 36 41 44 44 42 37 35 37 40 40 38 40 45 49 49 47 45 44
5 6 6 7 7 7 7 6 6 6 6 6 6 8 9 11 14 17 18 19 20 20 21 21 23 26 27 28 30 31 33 35 33 31 31 37 42 44 44 41 35 32 34 38 40 38 39 43 47 48 47 46
5 5 6 6 7 7 7 7 7 7 6 6 5 5 6 7 9 12 15 18 19 20 21 21 21 23 25 26 27 28 30 31 32 30 29 32 38 41 40 40 38 32 28 31 36 39 38 38 41 44 45 46
6 5 5 6 6 7 7 8 8 8 7 7 6 6 5 5 6 7 10 13 16 18 20 21 21 21 23 24 25 27 28 30 30 30 29 30 34 37 37 35 35 32 27 24 28 35 40 40 39 40 42 44
7 6 5 5 6 7 7 7 8 8 8 7 7 7 6 6 5 5 6 8 10 14 17 20 21 21 22 23 24 25 27 29 29 29 29 29 30 33 33 31 29 29 27 23 22 28 37 41 41 40 41 41
8 8 7 6 5 6 7 7 7 8 8 8 8 7 7 7 6 6 6 6 7 8 12 15 19 21 22 22 23 24 25 27 28 29 29 28 29 31 32 29 26 26 27 25 22 24 30 36 39 42 44 43
9 9 8 8 6 6 6 6 7 7 7 8 8 8 8 8 7 7 6 6 6 6 7 10 13 17 20 22 23 23 25 27 28 29 30 29 29 30 32 30 26 26 28 28 25 24 24 26 30 37 45 47
8 9 9 9 8 7 7 7 7 7 7 8 8 9 9 9 8 8 7 7 7 7 7 7 8 11 14 18 21 23 24 27 29 30 31 31 30 30 32 32 29 27 28 28 26 25 24 22 22 26 37 45
6 8 9 9 9 9 8 8 9 9 9 9 9 9 9 9 9 9 8 8 8 8 7 7 7 8 9 12 15 19 22 25 29 31 33 33 32 31 31 32 32 30 28 28 27 26 26 24 21 21 25 36
4 6 7 8 9 9 9 9 9 10 10 11 11 11 10 10 10 10 9 9 9 8 8 8 8 8 7 8 10 13 17 21 26 29 32 33 34 33 32 32 33 33 31 29 29 29 28 26 23 20 19 24
3 4 5 6 7 8 9 9 10 11 11 11 12 12 12 12 11 11 11 10 10 9 9 9 8 8 8 8 8 9 12 15 20 24 28 32 34 36 36 34 33 34 35 34 33 33 31 28 26 24 20 19
3 3 3 4 5 6 7 8 9 10 11 11 11 12 12 12 13 12 12 12 11 11 10 10 9 9 9 9 9 8 9 10 13 17 22 28 32 36 38 38 36 35 36 38 37 37 36 33 30 28 25 22
3 3 3 3 3 4 4 5 6 7 8 9 10 11 11 12 12 13 13 13 13 12 12 11 11 10 10 9 9 9 9 9 9 11 15 20 26 32 36 39 40 39 39 40 41 41 40 38 35 33 30 27
3 3 3 3 3 3 3 4 4 5 5 6 7 8 9 10 11 12 13 14 14 13 13 13 12 11 11 10 10 10 10 10 9 9 10 12 17 24 31 36 39 41 43 44 45 45 44 41 39 37 35 32
3 2 3 3 3 3 3 3 3 4 4 5 5 5 6 7 9 10 12 13 14 14 13 13 13 13 12 12 11 11 10 10 10 10 9 9 11 15 21 28 34 38 42 46 48 48 48 46 42 40 39 37
3 3 3 2 3 3 3 3 3 3 3 3 4 5 5 5 6 7 9 11 12 13 13 13 14 14 13 13 13 12 12 11 11 11 11 10 9 10 12 17 24 31 37 44 48 51 52 51 47 43 41 40
3 3 3 3 3 2 2 3 3 3 3 3 3 3 4 4 5 5 6 8 9 10 12 13 14 14 14 14 14 14 13 13 12 12 12 12 11 10 10 11 14 20 28 36 44 50 53 55 55 50 44 41
3 3 3 3 3 3 3 2 3 3 3 3 3 3 3 3 4 4 5 6 7 8 9 11 12 13 14 14 15 15 15 14 14 13 13 13 12 12 11 10 10 12 17 24 34 43 50 54 57 57 52 44
3 3 3 3 3 3 3 3 3 2 2 2 2 3 3 3 3 3 4 4 5 6 7 9 10 12 13 13 14 15 15 16 15 15 14 14 13 13 12 12 11 11 11 14 21 30 40 47 53 58 58 52
3 3 3 3 3 3 3 3 3 3 3 2 2 2 3 3 3 3 3 3 4 4 5 6 8 9 11 12 13 13 14 15 16 16 16 15 14 14 14 13 13 12 11 11 13 17 24 33 42 51 56 56
3 3 3 3 3 3 3 3 3 3 3 2 2 2 2 2 3 3 3 3 3 3 4 4 5 7 8 10 11 12 13 14 15 16 16 16 16 16 15 14 14 14 13 12 12 12 14 18 26 36 45 50
3 3 3 3 3 3 3 3 3 3 3 3 3 3 2 2 2 2 3 2 3 3 3 4 4 5 6 7 8 10 11 12 14 15 16 16 17 17 17 16 15 15 14 14 13 13 12 12 14 19 27 35
3 3 3 3 3 3 3 3 3 3 3 3 3 3 3 2 2 2 2 2 3 2 3 3 3 4 4 5 6 7 9 10 12 13 15 15 16 17 17 17 17 16 16 15 15 14 14 13 13 13 15 19
3 3 3 3 3 3 2 3 2 2 3 2 3 3 3 3 3 3 2 2 3 2 3 3 3 3 3 4 4 5 6 7 9 11 12 14 15 15 16 17 18 18 17 16 16 15 15 14 14 14 13 13
3 3 3 3 3 3 2 3 2 2 2 2 3 3 3 3 3 3 3 3 3 3 2 2 3 3 3 3 3 4 5 5 6 8 9 11 13 14 15 16 17 18 18 17 17 17 16 16 15 15 14 14
3 3 3 3 3 3 3 3 3 2 2 2 2 3 3 3 3 3 3 3 3 3 3 2 2 3 3 3 3 3 4 4 5 5 7 8 10 12 13 14 15 17 17 17 18 17 17 17 17 16 15 15